TimeEDT,TemperatureF,Dew PointF,Humidity,Sea Level PressureIn,VisibilityMPH,Wind Direction,Wind SpeedMPH,Gust SpeedMPH,PrecipitationIn,Events,Conditions,WindDirDegrees,DateUTC
12:07 AM,50.0,48.2,94,30.32,4.0,SSW,6.9,-,N/A,,Clear,210,2012-03-21 04:07:00
12:10 AM,50.0,48.2,94,30.32,1.8,SW,6.9,-,N/A,,Clear,220,2012-03-21 04:10:00
12:25 AM,51.8,51.8,100,30.32,3.0,SW,5.8,-,N/A,,Clear,220,2012-03-21 04:25:00
12:29 AM,51.8,51.8,100,30.32,1.8,SSW,6.9,-,N/A,,Clear,210,2012-03-21 04:29:00
12:39 AM,50.0,50.0,100,30.31,0.5,SSW,6.9,-,N/A,Fog,Fog,210,2012-03-21 04:39:00
12:48 AM,50.0,50.0,100,30.31,0.2,SSW,5.8,-,N/A,Fog,Fog,210,2012-03-21 04:48:00
12:53 AM,51.1,50.0,96,30.32,0.2,SSW,5.8,-,N/A,Fog,Fog,210,2012-03-21 04:53:00
1:09 AM,51.8,51.8,100,30.31,0.2,SSW,4.6,-,N/A,Fog,Fog,210,2012-03-21 05:09:00
1:38 AM,53.6,51.8,94,30.32,0.2,Calm,Calm,-,N/A,Fog,Fog,0,2012-03-21 05:38:00
1:53 AM,54.0,53.1,97,30.32,0.5,SW,5.8,-,N/A,Fog,Fog,220,2012-03-21 05:53:00
2:41 AM,53.6,51.8,94,30.31,0.2,Calm,Calm,-,N/A,Fog,Fog,0,2012-03-21 06:41:00
2:48 AM,53.6,51.8,94,30.31,0.2,Calm,Calm,-,N/A,Fog,Fog,0,2012-03-21 06:48:00
2:53 AM,53.1,52.0,96,30.31,0.2,Calm,Calm,-,N/A,Fog,Fog,0,2012-03-21 06:53:00
2:58 AM,53.6,51.8,94,30.31,0.5,Calm,Calm,-,N/A,Fog,Fog,0,2012-03-21 06:58:00
3:07 AM,53.6,51.8,94,30.31,1.2,WSW,3.5,-,N/A,,Mostly Cloudy,250,2012-03-21 07:07:00
3:10 AM,51.8,51.8,100,30.31,2.0,WSW,3.5,-,N/A,,Mostly Cloudy,250,2012-03-21 07:10:00
3:13 AM,51.8,51.8,100,30.31,3.0,WSW,3.5,-,N/A,,Scattered Clouds,240,2012-03-21 07:13:00
3:53 AM,51.1,50.0,96,30.31,1.0,SW,3.5,-,N/A,,Clear,220,2012-03-21 07:53:00
4:00 AM,51.8,50.0,94,30.31,0.8,Calm,Calm,-,N/A,,Clear,0,2012-03-21 08:00:00
4:07 AM,50.0,48.2,94,30.30,0.2,Calm,Calm,-,N/A,Fog,Fog,0,2012-03-21 08:07:00
4:53 AM,48.0,46.9,96,30.31,0.2,Calm,Calm,-,N/A,Fog,Fog,0,2012-03-21 08:53:00
5:16 AM,46.4,46.4,100,30.31,0.2,Calm,Calm,-,N/A,Fog,Fog,0,2012-03-21 09:16:00
5:32 AM,50.0,50.0,100,30.31,0.2,Calm,Calm,-,N/A,Fog,Fog,0,2012-03-21 09:32:00
5:53 AM,51.1,50.0,96,30.31,0.2,Calm,Calm,-,N/A,Fog,Fog,0,2012-03-21 09:53:00
6:53 AM,51.1,50.0,96,30.32,0.2,Calm,Calm,-,0.01,Fog,Fog,0,2012-03-21 10:53:00
7:53 AM,52.0,51.1,97,30.35,0.2,Calm,Calm,-,N/A,Fog,Fog,0,2012-03-21 11:53:00
8:19 AM,53.6,51.8,94,30.35,0.2,WSW,3.5,-,N/A,Fog,Fog,250,2012-03-21 12:19:00
8:32 AM,53.6,53.6,100,30.35,0.5,West,3.5,-,N/A,Fog,Fog,260,2012-03-21 12:32:00
8:51 AM,55.4,53.6,94,30.35,0.2,Variable,3.5,-,N/A,Fog,Fog,0,2012-03-21 12:51:00
8:53 AM,55.0,54.0,96,30.35,0.2,West,3.5,-,N/A,Fog,Fog,270,2012-03-21 12:53:00
9:08 AM,55.4,55.4,100,30.35,0.2,Variable,4.6,-,N/A,Fog,Fog,0,2012-03-21 13:08:00
9:19 AM,57.2,55.4,94,30.35,0.5,West,5.8,-,N/A,Fog,Fog,260,2012-03-21 13:19:00
9:29 AM,57.2,55.4,94,30.36,1.5,West,8.1,-,N/A,,Overcast,270,2012-03-21 13:29:00
9:43 AM,57.2,57.2,100,30.36,5.0,West,5.8,-,N/A,,Overcast,270,2012-03-21 13:43:00
9:53 AM,57.9,57.0,97,30.36,9.0,West,5.8,-,N/A,,Mostly Cloudy,270,2012-03-21 13:53:00
10:26 AM,62.6,57.2,82,30.36,10.0,WSW,5.8,-,N/A,,Overcast,250,2012-03-21 14:26:00
10:53 AM,66.0,57.9,75,30.36,10.0,West,5.8,-,N/A,,Overcast,270,2012-03-21 14:53:00
11:53 AM,70.0,59.0,68,30.35,10.0,West,9.2,-,N/A,,Overcast,260,2012-03-21 15:53:00
12:53 PM,70.0,57.9,65,30.33,10.0,West,13.8,19.6,N/A,,Mostly Cloudy,260,2012-03-21 16:53:00
1:53 PM,73.0,57.9,59,30.31,10.0,West,11.5,18.4,N/A,,Partly Cloudy,260,2012-03-21 17:53:00
2:53 PM,75.0,57.0,53,30.29,10.0,SW,11.5,19.6,N/A,,Partly Cloudy,230,2012-03-21 18:53:00
3:53 PM,73.9,57.0,55,30.27,10.0,SSW,15.0,20.7,N/A,,Clear,210,2012-03-21 19:53:00
4:53 PM,70.0,57.9,65,30.26,10.0,SSW,16.1,-,N/A,,Clear,200,2012-03-21 20:53:00
5:53 PM,66.9,57.0,70,30.27,10.0,SSW,12.7,-,N/A,,Clear,210,2012-03-21 21:53:00
6:53 PM,62.1,55.9,80,30.27,10.0,SSW,9.2,-,N/A,,Clear,200,2012-03-21 22:53:00
7:53 PM,57.9,55.0,90,30.28,10.0,SSW,10.4,-,N/A,,Clear,200,2012-03-21 23:53:00
8:02 PM,57.2,55.4,94,30.27,8.0,SSW,11.5,-,N/A,,Partly Cloudy,210,2012-03-22 00:02:00
8:53 PM,57.0,55.0,93,30.28,9.0,SW,9.2,-,N/A,,Mostly Cloudy,220,2012-03-22 00:53:00
9:10 PM,57.2,55.4,94,30.28,7.0,SW,6.9,-,N/A,,Overcast,220,2012-03-22 01:10:00
9:48 PM,57.2,55.4,94,30.28,8.0,SW,5.8,-,N/A,,Scattered Clouds,220,2012-03-22 01:48:00
9:53 PM,55.9,55.0,97,30.28,8.0,SW,5.8,-,N/A,,Partly Cloudy,220,2012-03-22 01:53:00
10:53 PM,57.0,55.0,93,30.28,10.0,SW,5.8,-,N/A,,Clear,230,2012-03-22 02:53:00
11:53 PM,57.9,55.9,93,30.27,10.0,WSW,5.8,-,N/A,,Clear,240,2012-03-22 03:53:00